TimeCDT,TemperatureF,Dew PointF,Humidity,Sea Level PressureIn,VisibilityMPH,Wind Direction,Wind SpeedMPH,Gust SpeedMPH,PrecipitationIn,Events,Conditions,WindDirDegrees,DateUTC
12:53 AM,66.9,53.1,61,29.85,10.0,SSE,10.4,-,N/A,,Partly Cloudy,150,2013-09-24 05:53:00
1:53 AM,64.9,54.0,68,29.84,10.0,SSE,10.4,-,N/A,,Clear,150,2013-09-24 06:53:00
2:53 AM,64.9,54.0,68,29.83,10.0,SSE,13.8,-,N/A,,Clear,160,2013-09-24 07:53:00
3:53 AM,63.0,54.0,72,29.82,10.0,SSE,9.2,-,N/A,,Clear,160,2013-09-24 08:53:00
4:53 AM,63.0,54.0,72,29.82,10.0,SSE,9.2,-,N/A,,Clear,160,2013-09-24 09:53:00
5:53 AM,62.1,54.0,75,29.83,10.0,South,9.2,-,N/A,,Clear,170,2013-09-24 10:53:00
6:53 AM,61.0,54.0,78,29.84,10.0,SSW,6.9,-,N/A,,Clear,210,2013-09-24 11:53:00
7:53 AM,62.1,55.0,78,29.85,10.0,SSW,9.2,-,N/A,,Clear,210,2013-09-24 12:53:00
8:53 AM,64.9,54.0,68,29.85,10.0,SW,10.4,-,N/A,,Clear,230,2013-09-24 13:53:00
9:53 AM,68.0,54.0,61,29.85,10.0,West,12.7,-,N/A,,Clear,260,2013-09-24 14:53:00
10:53 AM,70.0,55.0,59,29.86,10.0,WNW,8.1,-,N/A,,Clear,300,2013-09-24 15:53:00
11:53 AM,72.0,55.0,55,29.85,10.0,West,8.1,-,N/A,,Clear,270,2013-09-24 16:53:00
12:53 PM,73.9,55.9,53,29.84,10.0,WNW,13.8,-,N/A,,Partly Cloudy,290,2013-09-24 17:53:00
1:53 PM,75.0,55.9,51,29.84,10.0,West,11.5,20.7,N/A,,Scattered Clouds,270,2013-09-24 18:53:00
2:53 PM,75.9,55.9,50,29.83,10.0,West,13.8,21.9,N/A,,Mostly Cloudy,260,2013-09-24 19:53:00
4:53 PM,75.0,55.9,51,29.84,10.0,West,10.4,-,N/A,,Mostly Cloudy,280,2013-09-24 21:53:00
5:53 PM,73.0,57.0,57,29.84,10.0,West,6.9,-,N/A,,Overcast,270,2013-09-24 22:53:00
6:53 PM,71.1,57.0,61,29.84,10.0,NW,6.9,-,N/A,,Scattered Clouds,310,2013-09-24 23:53:00
7:53 PM,68.0,55.9,65,29.84,10.0,West,5.8,-,N/A,,Mostly Cloudy,280,2013-09-25 00:53:00
8:53 PM,64.0,55.9,75,29.84,10.0,WNW,5.8,-,N/A,,Clear,290,2013-09-25 01:53:00
9:53 PM,63.0,55.9,78,29.85,10.0,West,4.6,-,N/A,,Clear,280,2013-09-25 02:53:00
10:53 PM,62.1,55.9,80,29.85,10.0,West,5.8,-,N/A,,Clear,280,2013-09-25 03:53:00
11:53 PM,62.1,57.0,84,29.86,10.0,NW,4.6,-,N/A,,Mostly Cloudy,310,2013-09-25 04:53:00